Regional Weather Roundup
Issued by NWS

Home | Current Version | Previous Version | Text Only | Print | Product List | Glossary On
Versions: 1 2 3 4 5 6 7 8 9 10 11 12 13 14 15 16 17 18 19 20 21 22 23 24 25 26 27 28 29 30 31 32 33 34 35 36 37 38 39 40 41 42 43 44 45 46 47 48 49 50
000
ASUS45 KBOI 041010
RWRID

IDAHO REGIONAL WEATHER ROUNDUP
NATIONAL WEATHER SERVICE BOISE ID
400 AM MDT SAT JUL 04 2015

NOTE: "FAIR" INDICATES FEW OR NO CLOUDS BELOW 12000 FEET
WITH NO SIGNIFICANT WEATHER AND/OR OBSTRUCTIONS TO VISIBILITY

IDZ012-014-041100-
SOUTHWEST IDAHO


CITY           SKY/WX    TMP DP  RH WIND       PRES   REMARKS
BOISE          MOCLDY    77  38  24 S7        29.82R
CALDWELL       MOCLDY    70  48  46 NW6       29.82S
MOUNTAIN HOME  CLOUDY    74  36  25 SW6       29.83R
$$

IDZ016-017-041100-
SOUTHCENTRAL IDAHO


CITY           SKY/WX    TMP DP  RH WIND       PRES   REMARKS
BURLEY         PTCLDY    68  49  50 SW8       29.90S
JEROME         MOCLDY    73  48  41 SE7       29.91S
TWIN FALLS     MOCLDY    78  45  30 S12       29.90R
$$

IDZ019>023-041100-
SOUTHEAST IDAHO


CITY           SKY/WX    TMP DP  RH WIND       PRES   REMARKS
IDAHO FALLS    PTCLDY    59  54  83 SW3       29.95S
POCATELLO      CLEAR     64  55  72 S6        29.94S
REXBURG        CLEAR     59  54  83 N3        29.96R
$$

IDZ006-010-011-018-031-032-041100-
CENTRAL IDAHO MOUNTAINS


CITY           SKY/WX    TMP DP  RH WIND       PRES   REMARKS
MCCALL         CLEAR     57  41  55 CALM      30.00S
HAILEY         PTCLDY    64  34  32 N9        30.03S
STANLEY          N/A     47  32  56 S6        30.15R
SALMON         CLEAR     57  43  58 CALM      29.95S
CHALLIS        PTCLDY    60  41  49 CALM      30.02R
$$

IDZ002-004-006-007-026-041100-
NORTHERN IDAHO


CITY           SKY/WX    TMP DP  RH WIND       PRES   REMARKS
LEWISTON       CLEAR     74  42  31 S3        29.77R
LOWELL           N/A     63  54  72 N3        29.86R
COEUR D`ALENE  CLEAR     66  50  55 CALM      29.79S
MULLAN PASS    CLEAR     68  34  28 NW3       30.06F
$$


USA.gov is the U.S. government's official web portal to all federal, state and local government web resources and services.